Regional Weather Roundup
Issued by NWS Charleston, SC

Current Version | Previous Version | Text Only | Print | Product List | Glossary Off
Versions: 1 2 3 4 5 6 7 8 9 10 11 12 13 14 15 16 17 18 19 20 21 22 23 24 25 26 27 28 29 30 31 32 33 34 35 36 37 38 39 40 41 42 43 44 45 46 47 48 49 50

000
ASUS42 KCHS 301426
RWRCHS

REGIONAL WEATHER ROUNDUP
NATIONAL WEATHER SERVICE CHARLESTON SC
1000 AM EDT THU JUL 30 2015

NOTE: "FAIR" INDICATES FEW OR NO CLOUDS BELOW 12,000 FEET WITH NO
SIGNIFICANT WEATHER AND/OR OBSTRUCTIONS TO VISIBILITY.

NOT ALL STATIONS ARE QUALITY CONTROLLED BY THE NATIONAL
WEATHER SERVICE. USE DATA WITH CAUTION...ESPECIALLY
DEWPOINT OBSERVATIONS.

SCZ027-030-031-034>040-042>050-301500-
...SOUTHEAST SOUTH CAROLINA...

CITY           SKY/WX    TMP DP  RH WIND       PRES   REMARKS
N CHARLESTON   MOSUNNY   86  75  69 N8        29.96S HX  95
WATERFRONT PRK   N/A     82  77  84 N8        29.93R HX  90
MOUNT PLEASANT FAIR      84  75  74 NW3       29.96S HX  92
JOHNS ISLAND   FAIR      86  75  70 NW5       29.97R HX  95
PINOPOLIS      NOT AVBL
MONCKS CORNER  FAIR      86  75  70 N5        29.96S HX  95
SUMMERVILLE    FAIR      88  73  62 N7        29.97S HX  96
BEAUFORT MCAS  MOSUNNY   87  74  64 N5        29.96S HX  95
BEAUFORT ARPT  FAIR      86  77  74 CALM      29.96R HX  97
HILTON HEAD IS SUNNY     82  73  74 N7        29.97S
WALTERBORO     SUNNY     90  64  43 CALM      29.97S HX  91
ALLENDALE      FAIR      88  72  58 NW3       29.96S HX  94

...SOUTHERN MIDLANDS AND PEE DEE...

CITY           SKY/WX    TMP DP  RH WIND       PRES   REMARKS
GEORGETOWN     NOT AVBL
KINGSTREE      NOT AVBL
ORANGEBURG     SUNNY     87  70  56 N5        29.98S HX  92
BARNWELL       FAIR      88  75  66 CALM      29.98S HX  97
AIKEN          FAIR      86  70  58 W6        30.02S HX  90
MANNING        FAIR      86  68  54 CALM      29.97S
COLUMBIA       MOSUNNY   89  72  56 NW5       29.97S HX  96
SUMTER         SUNNY     87  69  56 W6        29.96S HX  91
FLORENCE       SUNNY     87  67  51 W5        29.97S HX  90
MYRTLE BEACH   MOSUNNY   84  73  70 N8        29.98R HX  91
N MYRTLE BEACH SUNNY     84  74  71 NE8       29.96S HX  91

$$

GAZ063-065-086>088-099>101-113>116-118-119-134>141-150-301500-
...SOUTHEAST GEORGIA...

CITY           SKY/WX    TMP DP  RH WIND       PRES   REMARKS
SAVANNAH ARPT  PTSUNNY   88  70  55 N3        29.96R HX  93
HUNTER AAF     MOSUNNY   87  73  64 E2        29.94R HX  94
FORT STEWART   MOSUNNY   86  73  65 CALM      29.94R HX  93
STATESBORO     PTSUNNY   82  77  86 CALM      29.97R
SYLVANIA       PTSUNNY   84  77  79 CALM      29.99R HX  94
CLAXTON        FAIR      81  75  83 CALM      29.98R

...CSRA...CENTRAL AND FAR SOUTHEAST GEORGIA...

CITY           SKY/WX    TMP DP  RH WIND       PRES   REMARKS
THOMSON        SUNNY     86  79  80 CALM      30.03R HX  99
AUGUSTA-BUSH   SUNNY     83  75  77 N3        29.97S HX  90
AUGUSTA-DANIEL SUNNY     86  74  67 CALM      29.99S HX  94
SWAINSBORO     PTSUNNY  N/A N/A N/A CALM      29.99S
VIDALIA        HVY RAIN  84  77  79 CALM      29.99R HX  94
EASTMAN        PTSUNNY   85  79  81 NW3       30.02R HX  98
HAZLEHURST     FAIR      85  78  79 NW3       29.98R HX  96
ALMA           PTSUNNY   83  76  79 W5        29.98R HX  91
WAYCROSS       CLOUDY    83  80  90 CALM      29.99R HX  94
JESUP          FAIR      82  77  83 CALM      29.98R HX  91
BAXLEY         PTSUNNY   82  77  83 CALM      29.98R HX  91
BRUNSWICK      SUNNY     86  75  70 CALM      29.98S HX  95
SAINT SIMONS   SUNNY     83  76  79 W3        29.97R HX  91

$$

SCZ027-028-034-036>038-045-046-048>050-GAZ119-141-301500-
...LAKE AND SUPPLEMENTAL COASTAL OBSERVATIONS...

STATION/POSITION TIME  TEMP    WIND        PRES    WAVE   SWELL
                       AIR SEA DIR/SP/G            HT/PER HT/PER/DIR
                 (UTC) (F)     (DEG/KT/KT) (MB)    (FT/S) (FT/S/D)
UPR LAKE MARION  NOT AVBL
WINYAH BAY       1345   81     360/  4     1014.0R
LAKE MURRAY      1300   81     270/  3/  5 1014.6R
ACE BASIN NERRS  NOT AVBL
FORT PULASKI     1400           30/  6/  8   N/A
SAPELO ISLAND    1400   87     340/  1     1015.0R

$$

ANZ835-935-AMZ111-154-330-350-352-354-370-450-454-472-301500-
...C-MAN AND BUOY OBSERVATIONS...

STATION/POSITION TIME  TEMP    WIND        PRES    WAVE   SWELL
                       AIR SEA DIR/SP/G            HT/PER HT/PER/DIR
                 (UTC) (F)     (DEG/KT/KT) (MB)    (FT/S) (FT/S/D)
BUOY 41004       1350   82 84   20/ 12/ 14 1013.3F   3/ 8   3/ 8
BUOY 41008       1350   82 82   50/  6/  8 1014.7R   2/ 8   2/110/ 8
FOLLY BEACH CMAN 1400   84     360/  5/  6 1014.8R
CAPERS NEARSHORE 1308   81      40/  8/ 10 1014.4R
FRIPP NEARSHORE  1300   83     360/  6/  8 1014.0R


STATION/POSITION TIME  TEMP    WIND        PRES    WAVE   SWELL
                       AIR SEA DIR/SP/G            HT/PER HT/PER/DIR
                 (UTC) (F)     (DEG/KT/KT) (MB)    (FT/S) (FT/S/D)
5E ST. MARYS GA  1321      83                N/A     2/ 7
FRYING PAN BUOY  1350   82 84   30/  6/  8 1014.4R   4/ 8   3/170/ 8
BUOY 41025       1350   84 85  170/ 17/ 21 1014.3S   4/ 7   2/130/ 7
CAPE LOOKOUT NC  1400   82     180/ 14/ 15 1013.8R
BUOY 41002       1350   81 81  190/ 19/ 23 1015.4F   9/ 8
BUOY 41010       1320   82 84  240/ 14/ 16 1014.8R
ST AUGUSTINE FL  1400   79 81   90/  3/  3 1016.4R


$$



USA.gov is the U.S. government's official web portal to all federal, state and local government web resources and services.